Terminal Aerodrome Forecast
Issued by NWS Buffalo, NY

Home | Current Version | Previous Version | Text Only | Print | Product List | Glossary On
Versions: 1 2 3 4 5 6 7 8 9 10 11 12 13 14 15 16 17 18 19 20 21 22 23
000
FTUS41 KBUF 211100
TAFBUF
TAF
KBUF 211131Z 2112/2212 21009KT P6SM BKN150
     FM211600 23011G19KT P6SM BKN130
     FM212300 22008KT P6SM BKN140
     FM220900 22010KT 5SM -SHRA OVC045=

USA.gov is the U.S. government's official web portal to all federal, state and local government web resources and services.